Year,Month,Day,Hour,Minute,Value (Times are PST for temperature in C)
2012,02,22,00,00,8.50
2012,02,22,00,01,8.50
2012,02,22,00,02,8.50
2012,02,22,00,03,8.50
2012,02,22,00,04,8.40
2012,02,22,00,05,8.40
2012,02,22,00,06,8.40
2012,02,22,00,07,8.40
2012,02,22,00,08,8.40
2012,02,22,00,09,8.40
2012,02,22,00,10,8.40
2012,02,22,00,11,8.40
2012,02,22,00,12,8.40
2012,02,22,00,13,8.40
2012,02,22,00,14,8.40
2012,02,22,00,15,8.40
2012,02,22,00,16,8.40
2012,02,22,00,17,8.40
2012,02,22,00,18,8.30
2012,02,22,00,19,8.30
2012,02,22,00,20,8.30
2012,02,22,00,21,8.30
2012,02,22,00,22,8.30
2012,02,22,00,23,8.30
2012,02,22,00,24,8.20
2012,02,22,00,25,8.20
2012,02,22,00,26,8.20
2012,02,22,00,27,8.20
2012,02,22,00,28,8.20
2012,02,22,00,29,8.20
2012,02,22,00,30,8.20
2012,02,22,00,31,8.20
2012,02,22,00,32,8.20
2012,02,22,00,33,8.20
2012,02,22,00,34,8.20
2012,02,22,00,35,8.20
2012,02,22,00,36,8.20
2012,02,22,00,37,8.20
2012,02,22,00,38,8.20
2012,02,22,00,39,8.20
2012,02,22,00,40,8.20
2012,02,22,00,41,8.20
2012,02,22,00,42,8.20
2012,02,22,00,43,8.20
2012,02,22,00,44,8.20
2012,02,22,00,45,8.20
2012,02,22,00,46,8.20
2012,02,22,00,47,8.20
2012,02,22,00,48,8.20
2012,02,22,00,49,8.30
2012,02,22,00,50,8.30
2012,02,22,00,51,8.30
2012,02,22,00,52,8.40
2012,02,22,00,53,8.40
2012,02,22,00,54,8.40
2012,02,22,00,55,8.40
2012,02,22,00,56,8.40
2012,02,22,00,57,8.40
2012,02,22,00,58,8.40
2012,02,22,00,59,8.40
2012,02,22,01,00,8.40
2012,02,22,01,01,8.40
2012,02,22,01,02,8.50
2012,02,22,01,03,8.50
2012,02,22,01,04,8.50
2012,02,22,01,05,8.50
2012,02,22,01,06,8.50
2012,02,22,01,07,8.50
2012,02,22,01,08,8.50
2012,02,22,01,09,8.60
2012,02,22,01,10,8.60
2012,02,22,01,11,8.60
2012,02,22,01,12,8.60
2012,02,22,01,13,8.50
2012,02,22,01,14,8.50
2012,02,22,01,15,8.50
2012,02,22,01,16,8.50
2012,02,22,01,17,8.50
2012,02,22,01,18,8.50
2012,02,22,01,19,8.50
2012,02,22,01,20,8.50
2012,02,22,01,21,8.50
2012,02,22,01,22,8.50
2012,02,22,01,23,8.50
2012,02,22,01,24,8.50
2012,02,22,01,25,8.60
2012,02,22,01,26,8.60
2012,02,22,01,27,8.60
2012,02,22,01,28,8.60
2012,02,22,01,29,8.60
2012,02,22,01,30,8.70
2012,02,22,01,31,8.70
2012,02,22,01,32,8.70
2012,02,22,01,33,8.70
2012,02,22,01,34,8.70
2012,02,22,01,35,8.70
2012,02,22,01,36,8.80
2012,02,22,01,37,8.80
2012,02,22,01,38,8.80
2012,02,22,01,39,8.80
2012,02,22,01,40,8.80
2012,02,22,01,41,8.80
2012,02,22,01,42,8.80
2012,02,22,01,43,8.80
2012,02,22,01,44,8.80
2012,02,22,01,45,8.80
2012,02,22,01,46,8.80
2012,02,22,01,47,8.80
2012,02,22,01,48,8.90
2012,02,22,01,49,8.90
2012,02,22,01,50,8.90
2012,02,22,01,51,8.90
2012,02,22,01,52,8.90
2012,02,22,01,53,8.90
2012,02,22,01,54,8.90
2012,02,22,01,55,8.90
2012,02,22,01,56,8.90
2012,02,22,01,57,8.90
2012,02,22,01,58,8.90
2012,02,22,01,59,8.90
2012,02,22,02,00,8.90
2012,02,22,02,01,8.90
2012,02,22,02,02,8.90
2012,02,22,02,03,8.90
2012,02,22,02,04,8.90
2012,02,22,02,05,8.90
2012,02,22,02,06,8.90
2012,02,22,02,07,8.90
2012,02,22,02,08,8.90
2012,02,22,02,09,8.90
2012,02,22,02,10,8.90
2012,02,22,02,11,8.90
2012,02,22,02,12,8.90
2012,02,22,02,13,8.90
2012,02,22,02,14,8.90
2012,02,22,02,15,8.90
2012,02,22,02,16,8.90
2012,02,22,02,17,8.90
2012,02,22,02,18,8.90
2012,02,22,02,19,8.90
2012,02,22,02,20,8.90
2012,02,22,02,21,8.90
2012,02,22,02,22,8.90
2012,02,22,02,23,8.90
2012,02,22,02,24,8.90
2012,02,22,02,25,8.90
2012,02,22,02,26,8.90
2012,02,22,02,27,8.90
2012,02,22,02,28,8.90
2012,02,22,02,29,8.90
2012,02,22,02,30,8.90
2012,02,22,02,31,8.80
2012,02,22,02,32,8.80
2012,02,22,02,33,8.80
2012,02,22,02,34,8.80
2012,02,22,02,35,8.80
2012,02,22,02,36,8.80
2012,02,22,02,37,8.80
2012,02,22,02,38,8.80
2012,02,22,02,39,8.80
2012,02,22,02,40,8.80
2012,02,22,02,41,8.80
2012,02,22,02,42,8.80
2012,02,22,02,43,8.90
2012,02,22,02,44,8.90
2012,02,22,02,45,8.90
2012,02,22,02,46,8.90
2012,02,22,02,47,8.90
2012,02,22,02,48,8.90
2012,02,22,02,49,8.90
2012,02,22,02,50,8.90
2012,02,22,02,51,8.90
2012,02,22,02,52,9.00
2012,02,22,02,53,9.00
2012,02,22,02,54,9.00
2012,02,22,02,55,9.00
2012,02,22,02,56,8.90
2012,02,22,02,57,8.90
2012,02,22,02,58,8.90
2012,02,22,02,59,8.90
2012,02,22,03,00,8.90
2012,02,22,03,01,8.90
2012,02,22,03,02,8.90
2012,02,22,03,03,8.90
2012,02,22,03,04,8.80
2012,02,22,03,05,8.80
2012,02,22,03,06,8.80
2012,02,22,03,07,8.80
2012,02,22,03,08,8.70
2012,02,22,03,09,8.70
2012,02,22,03,10,8.70
2012,02,22,03,11,8.70
2012,02,22,03,12,8.70
2012,02,22,03,13,8.70
2012,02,22,03,14,8.70
2012,02,22,03,15,8.70
2012,02,22,03,16,8.70
2012,02,22,03,17,8.70
2012,02,22,03,18,8.70
2012,02,22,03,19,8.70
2012,02,22,03,20,8.70
2012,02,22,03,21,8.70
2012,02,22,03,22,8.70
2012,02,22,03,23,8.70
2012,02,22,03,24,8.70
2012,02,22,03,25,8.70
2012,02,22,03,26,8.70
2012,02,22,03,27,8.70
2012,02,22,03,28,8.70
2012,02,22,03,29,8.70
2012,02,22,03,30,8.70
2012,02,22,03,31,8.70
2012,02,22,03,32,8.70
2012,02,22,03,33,8.70
2012,02,22,03,34,8.70
2012,02,22,03,35,8.70
2012,02,22,03,36,8.60
2012,02,22,03,37,8.60
2012,02,22,03,38,8.60
2012,02,22,03,39,8.60
2012,02,22,03,40,8.60
2012,02,22,03,41,8.50
2012,02,22,03,42,8.50
2012,02,22,03,43,8.50
2012,02,22,03,44,8.50
2012,02,22,03,45,8.40
2012,02,22,03,46,8.40
2012,02,22,03,47,8.40
2012,02,22,03,48,8.40
2012,02,22,03,49,8.40
2012,02,22,03,50,8.30
2012,02,22,03,51,8.30
2012,02,22,03,52,8.30
2012,02,22,03,53,8.30
2012,02,22,03,54,8.30
2012,02,22,03,55,8.30
2012,02,22,03,56,8.30
2012,02,22,03,57,8.30
2012,02,22,03,58,8.30
2012,02,22,03,59,8.30
2012,02,22,04,00,8.20
2012,02,22,04,01,8.20
2012,02,22,04,02,8.20
2012,02,22,04,03,8.20
2012,02,22,04,04,8.20
2012,02,22,04,05,8.20
2012,02,22,04,06,8.20
2012,02,22,04,07,8.20
2012,02,22,04,08,8.20
2012,02,22,04,09,8.10
2012,02,22,04,10,8.10
2012,02,22,04,11,8.10
2012,02,22,04,12,8.10
2012,02,22,04,13,8.10
2012,02,22,04,14,8.10
2012,02,22,04,15,8.00
2012,02,22,04,16,8.00
2012,02,22,04,17,8.00
2012,02,22,04,18,8.00
2012,02,22,04,19,8.00
2012,02,22,04,20,8.00
2012,02,22,04,21,7.90
2012,02,22,04,22,7.90
2012,02,22,04,23,7.90
2012,02,22,04,24,7.90
2012,02,22,04,25,7.80
2012,02,22,04,26,7.80
2012,02,22,04,27,7.80
2012,02,22,04,28,7.80
2012,02,22,04,29,7.80
2012,02,22,04,30,7.80
2012,02,22,04,31,7.80
2012,02,22,04,32,7.80
2012,02,22,04,33,7.80
2012,02,22,04,34,7.70
2012,02,22,04,35,7.70
2012,02,22,04,36,7.70
2012,02,22,04,37,7.70
2012,02,22,04,38,7.70
2012,02,22,04,39,7.70
2012,02,22,04,40,7.70
2012,02,22,04,41,7.70
2012,02,22,04,42,7.70
2012,02,22,04,43,7.70
2012,02,22,04,44,7.70
2012,02,22,04,45,7.70
2012,02,22,04,46,7.60
2012,02,22,04,47,7.60
2012,02,22,04,48,7.60
2012,02,22,04,49,7.60
2012,02,22,04,50,7.60
2012,02,22,04,51,7.60
2012,02,22,04,52,7.60
2012,02,22,04,53,7.50
2012,02,22,04,54,7.50
2012,02,22,04,55,7.50
2012,02,22,04,56,7.50
2012,02,22,04,57,7.50
2012,02,22,04,58,7.40
2012,02,22,04,59,7.40
2012,02,22,05,00,7.40
2012,02,22,05,01,7.40
2012,02,22,05,02,7.40
2012,02,22,05,03,7.30
2012,02,22,05,04,7.30
2012,02,22,05,05,7.30
2012,02,22,05,06,7.30
2012,02,22,05,07,7.30
2012,02,22,05,08,7.30
2012,02,22,05,09,7.30
2012,02,22,05,10,7.30
2012,02,22,05,11,7.20
2012,02,22,05,12,7.20
2012,02,22,05,13,7.20
2012,02,22,05,14,7.20
2012,02,22,05,15,7.10
2012,02,22,05,16,7.10
2012,02,22,05,17,7.10
2012,02,22,05,18,7.10
2012,02,22,05,19,7.10
2012,02,22,05,20,7.10
2012,02,22,05,21,7.00
2012,02,22,05,22,7.00
2012,02,22,05,23,7.00
2012,02,22,05,24,7.00
2012,02,22,05,25,6.90
2012,02,22,05,26,6.90
2012,02,22,05,27,6.90
2012,02,22,05,28,6.90
2012,02,22,05,29,6.80
2012,02,22,05,30,6.80
2012,02,22,05,31,6.80
2012,02,22,05,32,6.80
2012,02,22,05,33,6.80
2012,02,22,05,34,6.70
2012,02,22,05,35,6.70
2012,02,22,05,36,6.70
2012,02,22,05,37,6.70
2012,02,22,05,38,6.60
2012,02,22,05,39,6.60
2012,02,22,05,40,6.60
2012,02,22,05,41,6.60
2012,02,22,05,42,6.50
2012,02,22,05,43,6.40
2012,02,22,05,44,6.40
2012,02,22,05,45,6.40
2012,02,22,05,46,6.40
2012,02,22,05,47,6.30
2012,02,22,05,48,6.30
2012,02,22,05,49,6.30
2012,02,22,05,50,6.30
2012,02,22,05,51,6.20
2012,02,22,05,52,6.20
2012,02,22,05,53,6.20
2012,02,22,05,54,6.20
2012,02,22,05,55,6.20
2012,02,22,05,56,6.20
2012,02,22,05,57,6.20
2012,02,22,05,58,6.10
2012,02,22,05,59,6.10
2012,02,22,06,00,6.10
2012,02,22,06,01,6.10
2012,02,22,06,02,6.00
2012,02,22,06,03,6.00
2012,02,22,06,04,6.00
2012,02,22,06,05,6.00
2012,02,22,06,06,6.00
2012,02,22,06,07,6.00
2012,02,22,06,08,5.90
2012,02,22,06,09,5.90
2012,02,22,06,10,5.90
2012,02,22,06,11,5.90
2012,02,22,06,12,5.90
2012,02,22,06,13,5.90
2012,02,22,06,14,5.90
2012,02,22,06,15,5.90
2012,02,22,06,16,5.90
2012,02,22,06,17,5.90
2012,02,22,06,18,5.90
2012,02,22,06,19,5.90
2012,02,22,06,20,5.90
2012,02,22,06,21,5.90
2012,02,22,06,22,5.90
2012,02,22,06,23,6.00
2012,02,22,06,24,6.00
2012,02,22,06,25,6.10
2012,02,22,06,26,6.20
2012,02,22,06,27,6.20
2012,02,22,06,28,6.20
2012,02,22,06,29,6.30
2012,02,22,06,30,6.30
2012,02,22,06,31,6.40
2012,02,22,06,32,6.40
2012,02,22,06,33,6.40
2012,02,22,06,34,6.40
2012,02,22,06,35,6.40
2012,02,22,06,36,6.40
2012,02,22,06,37,6.40
2012,02,22,06,38,6.40
2012,02,22,06,39,6.40
2012,02,22,06,40,6.40
2012,02,22,06,41,6.40
2012,02,22,06,42,6.40
2012,02,22,06,43,6.40
2012,02,22,06,44,6.40
2012,02,22,06,45,6.30
2012,02,22,06,46,6.30
2012,02,22,06,47,6.30
2012,02,22,06,48,6.30
2012,02,22,06,49,6.20
2012,02,22,06,50,6.20
2012,02,22,06,51,6.20
2012,02,22,06,52,6.20
2012,02,22,06,53,6.20
2012,02,22,06,54,6.20
2012,02,22,06,55,6.20
2012,02,22,06,56,6.20
2012,02,22,06,57,6.20
2012,02,22,06,58,6.20
2012,02,22,06,59,6.10
2012,02,22,07,00,6.10
2012,02,22,07,01,6.10
2012,02,22,07,02,6.10
2012,02,22,07,03,6.10
2012,02,22,07,04,6.20
2012,02,22,07,05,6.20
2012,02,22,07,06,6.20
2012,02,22,07,07,6.20
2012,02,22,07,08,6.20
2012,02,22,07,09,6.30
2012,02,22,07,10,6.30
2012,02,22,07,11,6.30
2012,02,22,07,12,6.30
2012,02,22,07,13,6.30
2012,02,22,07,14,6.40
2012,02,22,07,15,6.40
2012,02,22,07,16,6.40
2012,02,22,07,17,6.40
2012,02,22,07,18,6.40
2012,02,22,07,19,6.40
2012,02,22,07,20,6.40
2012,02,22,07,21,6.40
2012,02,22,07,22,6.40
2012,02,22,07,23,6.40
2012,02,22,07,24,6.30
2012,02,22,07,25,6.30
2012,02,22,07,26,6.30
2012,02,22,07,27,6.30
2012,02,22,07,28,6.40
2012,02,22,07,29,6.30
2012,02,22,07,30,6.30
2012,02,22,07,31,6.30
2012,02,22,07,32,6.30
2012,02,22,07,33,6.20
2012,02,22,07,34,6.20
2012,02,22,07,35,6.20
2012,02,22,07,36,6.20
2012,02,22,07,37,6.20
2012,02,22,07,38,6.20
2012,02,22,07,39,6.20
2012,02,22,07,40,6.20
2012,02,22,07,41,6.20
2012,02,22,07,42,6.20
2012,02,22,07,43,6.20
2012,02,22,07,44,6.30
2012,02,22,07,45,6.30
2012,02,22,07,46,6.30
2012,02,22,07,47,6.30
2012,02,22,07,48,6.30
2012,02,22,07,49,6.30
2012,02,22,07,50,6.40
2012,02,22,07,51,6.40
2012,02,22,07,52,6.40
2012,02,22,07,53,6.40
2012,02,22,07,54,6.40
2012,02,22,07,55,6.40
2012,02,22,07,56,6.40
2012,02,22,07,57,6.40
2012,02,22,07,58,6.40
2012,02,22,07,59,6.40
2012,02,22,08,00,6.40
2012,02,22,08,01,6.40
2012,02,22,08,02,6.40
2012,02,22,08,03,6.40
2012,02,22,08,04,6.40
2012,02,22,08,05,6.50
2012,02,22,08,06,6.60
2012,02,22,08,07,6.60
2012,02,22,08,08,6.60
2012,02,22,08,09,6.60
2012,02,22,08,10,6.60
2012,02,22,08,11,6.70
2012,02,22,08,12,6.70
2012,02,22,08,13,6.80
2012,02,22,08,14,6.80
2012,02,22,08,15,6.80
2012,02,22,08,16,6.80
2012,02,22,08,17,6.80
2012,02,22,08,18,6.80
2012,02,22,08,19,6.80
2012,02,22,08,20,6.80
2012,02,22,08,21,6.80
2012,02,22,08,22,6.90
2012,02,22,08,23,6.90
2012,02,22,08,24,6.90
2012,02,22,08,25,6.90
2012,02,22,08,26,6.90
2012,02,22,08,27,6.90
2012,02,22,08,28,6.90
2012,02,22,08,29,6.90
2012,02,22,08,30,6.80
2012,02,22,08,31,6.80
2012,02,22,08,32,6.80
2012,02,22,08,33,6.80
2012,02,22,08,34,6.80
2012,02,22,08,35,6.80
2012,02,22,08,36,6.70
2012,02,22,08,37,6.70
2012,02,22,08,38,6.70
2012,02,22,08,39,6.70
2012,02,22,08,40,6.80
2012,02,22,08,41,6.80
2012,02,22,08,42,6.80
2012,02,22,08,43,6.90
2012,02,22,08,44,6.90
2012,02,22,08,45,7.00
2012,02,22,08,46,7.00
2012,02,22,08,47,7.10
2012,02,22,08,48,7.10
2012,02,22,08,49,7.20
2012,02,22,08,50,7.20
2012,02,22,08,51,7.20
2012,02,22,08,52,7.20
2012,02,22,08,53,7.20
2012,02,22,08,54,7.20
2012,02,22,08,55,7.20
2012,02,22,08,56,7.20
2012,02,22,08,57,7.20
2012,02,22,08,58,7.20
2012,02,22,08,59,7.20
2012,02,22,09,00,7.10
2012,02,22,09,01,7.00
2012,02,22,09,02,6.90
2012,02,22,09,03,6.80
2012,02,22,09,04,6.70
2012,02,22,09,05,6.60
2012,02,22,09,06,6.40
2012,02,22,09,07,6.30
2012,02,22,09,08,6.30
2012,02,22,09,09,6.20
2012,02,22,09,10,6.20
2012,02,22,09,11,6.20
2012,02,22,09,12,6.20
2012,02,22,09,13,6.20
2012,02,22,09,14,6.20
2012,02,22,09,15,6.20
2012,02,22,09,16,6.20
2012,02,22,09,17,6.20
2012,02,22,09,18,6.20
2012,02,22,09,19,6.30
2012,02,22,09,20,6.40
2012,02,22,09,21,6.40
2012,02,22,09,22,6.40
2012,02,22,09,23,6.50
2012,02,22,09,24,6.60
2012,02,22,09,25,6.60
2012,02,22,09,26,6.70
2012,02,22,09,27,6.70
2012,02,22,09,28,6.80
2012,02,22,09,29,6.80
2012,02,22,09,30,6.80
2012,02,22,09,31,6.90
2012,02,22,09,32,7.00
2012,02,22,09,33,7.00
2012,02,22,09,34,7.10
2012,02,22,09,35,7.10
2012,02,22,09,36,7.20
2012,02,22,09,37,7.20
2012,02,22,09,38,7.20
2012,02,22,09,39,7.30
2012,02,22,09,40,7.30
2012,02,22,09,41,7.30
2012,02,22,09,42,7.30
2012,02,22,09,43,7.40
2012,02,22,09,44,7.40
2012,02,22,09,45,7.50
2012,02,22,09,46,7.50
2012,02,22,09,47,7.50
2012,02,22,09,48,7.60
2012,02,22,09,49,7.60
2012,02,22,09,50,7.60
2012,02,22,09,51,7.70
2012,02,22,09,52,7.70
2012,02,22,09,53,7.70
2012,02,22,09,54,7.80
2012,02,22,09,55,7.80
2012,02,22,09,56,7.80
2012,02,22,09,57,7.80
2012,02,22,09,58,7.80
2012,02,22,09,59,7.80
2012,02,22,10,00,7.80
2012,02,22,10,01,7.80
2012,02,22,10,02,7.80
2012,02,22,10,03,7.80
2012,02,22,10,04,7.80
2012,02,22,10,05,7.80
2012,02,22,10,06,7.80
2012,02,22,10,07,7.70
2012,02,22,10,08,7.70
2012,02,22,10,09,7.80
2012,02,22,10,10,7.80
2012,02,22,10,11,7.80
2012,02,22,10,12,7.80
2012,02,22,10,13,7.80
2012,02,22,10,14,7.80
2012,02,22,10,15,7.80
2012,02,22,10,16,7.80
2012,02,22,10,17,7.80
2012,02,22,10,18,7.80
2012,02,22,10,19,7.80
2012,02,22,10,20,7.80
2012,02,22,10,21,7.80
2012,02,22,10,22,7.80
2012,02,22,10,23,7.90
2012,02,22,10,24,7.90
2012,02,22,10,25,7.90
2012,02,22,10,26,7.90
2012,02,22,10,27,7.90
2012,02,22,10,28,8.00
2012,02,22,10,29,8.00
2012,02,22,10,30,8.00
2012,02,22,10,31,8.00
2012,02,22,10,32,8.00
2012,02,22,10,33,8.00
2012,02,22,10,34,8.00
2012,02,22,10,35,8.10
2012,02,22,10,36,8.10
2012,02,22,10,37,8.10
2012,02,22,10,38,8.10
2012,02,22,10,39,8.10
2012,02,22,10,40,8.10
2012,02,22,10,41,8.20
2012,02,22,10,42,8.20
2012,02,22,10,43,8.20
2012,02,22,10,44,8.20
2012,02,22,10,45,8.20
2012,02,22,10,46,8.10
2012,02,22,10,47,8.10
2012,02,22,10,48,8.10
2012,02,22,10,49,8.10
2012,02,22,10,50,8.00
2012,02,22,10,51,8.00
2012,02,22,10,52,8.00
2012,02,22,10,53,7.90
2012,02,22,10,54,7.90
2012,02,22,10,55,7.90
2012,02,22,10,56,7.90
2012,02,22,10,57,7.80
2012,02,22,10,58,7.80
2012,02,22,10,59,7.80
2012,02,22,11,00,7.80
2012,02,22,11,01,7.90
2012,02,22,11,02,7.80
2012,02,22,11,03,7.90
2012,02,22,11,04,7.90
2012,02,22,11,05,7.90
2012,02,22,11,06,7.90
2012,02,22,11,07,8.00
2012,02,22,11,08,8.00
2012,02,22,11,09,8.00
2012,02,22,11,10,8.10
2012,02,22,11,11,8.10
2012,02,22,11,12,8.10
2012,02,22,11,13,8.20
2012,02,22,11,14,8.20
2012,02,22,11,15,8.20
2012,02,22,11,16,8.30
2012,02,22,11,17,8.30
2012,02,22,11,18,8.40
2012,02,22,11,19,8.40
2012,02,22,11,20,8.40
2012,02,22,11,21,8.40
2012,02,22,11,22,8.40
2012,02,22,11,23,8.40
2012,02,22,11,24,8.40
2012,02,22,11,25,8.40
2012,02,22,11,26,8.50
2012,02,22,11,27,8.50
2012,02,22,11,28,8.50
2012,02,22,11,29,8.50
2012,02,22,11,30,8.50
2012,02,22,11,31,8.60
2012,02,22,11,32,8.60
2012,02,22,11,33,8.50
2012,02,22,11,34,8.50
2012,02,22,11,35,8.50
2012,02,22,11,36,8.50
2012,02,22,11,37,8.50
2012,02,22,11,38,8.50
2012,02,22,11,39,8.50
2012,02,22,11,40,8.50
2012,02,22,11,41,8.50
2012,02,22,11,42,8.50
2012,02,22,11,43,8.60
2012,02,22,11,44,8.60
2012,02,22,11,45,8.60
2012,02,22,11,46,8.60
2012,02,22,11,47,8.60
2012,02,22,11,48,8.60
2012,02,22,11,49,8.60
2012,02,22,11,50,8.60
2012,02,22,11,51,8.60
2012,02,22,11,52,8.60
2012,02,22,11,53,8.60
2012,02,22,11,54,8.60
2012,02,22,11,55,8.60
2012,02,22,11,56,8.60
2012,02,22,11,57,8.60
2012,02,22,11,58,8.60
2012,02,22,11,59,8.50
2012,02,22,12,00,8.50
2012,02,22,12,01,8.50
2012,02,22,12,02,8.40
2012,02,22,12,03,8.40
2012,02,22,12,04,8.40
2012,02,22,12,05,8.40
2012,02,22,12,06,8.40
2012,02,22,12,07,8.30
2012,02,22,12,08,8.30
2012,02,22,12,09,8.30
2012,02,22,12,10,8.30
2012,02,22,12,11,8.40
2012,02,22,12,12,8.40
2012,02,22,12,13,8.40
2012,02,22,12,14,8.40
2012,02,22,12,15,8.40
2012,02,22,12,16,8.50
2012,02,22,12,17,8.50
2012,02,22,12,18,8.50
2012,02,22,12,19,8.60
2012,02,22,12,20,8.60
2012,02,22,12,21,8.70
2012,02,22,12,22,8.70
2012,02,22,12,23,8.80
2012,02,22,12,24,8.80
2012,02,22,12,25,8.90
2012,02,22,12,26,8.90
2012,02,22,12,27,8.90
2012,02,22,12,28,9.00
2012,02,22,12,29,9.00
2012,02,22,12,30,9.00
2012,02,22,12,31,9.00
2012,02,22,12,32,9.00
2012,02,22,12,33,9.00
2012,02,22,12,34,9.00
2012,02,22,12,35,9.00
2012,02,22,12,36,9.00
2012,02,22,12,37,9.10
2012,02,22,12,38,9.10
2012,02,22,12,39,9.10
2012,02,22,12,40,9.00
2012,02,22,12,41,9.00
2012,02,22,12,42,9.00
2012,02,22,12,43,9.00
2012,02,22,12,44,8.90
2012,02,22,12,45,8.90
2012,02,22,12,46,8.90
2012,02,22,12,47,8.90
2012,02,22,12,48,8.80
2012,02,22,12,49,8.80
2012,02,22,12,50,8.90
2012,02,22,12,51,8.90
2012,02,22,12,52,9.00
2012,02,22,12,53,9.00
2012,02,22,12,54,8.90
2012,02,22,12,55,8.90
2012,02,22,12,56,8.90
2012,02,22,12,57,9.00
2012,02,22,12,58,9.00
2012,02,22,12,59,9.00
2012,02,22,13,00,9.00
2012,02,22,13,01,9.10
2012,02,22,13,02,9.10
2012,02,22,13,03,9.10
2012,02,22,13,04,9.10
2012,02,22,13,05,9.20
2012,02,22,13,06,9.20
2012,02,22,13,07,9.20
2012,02,22,13,08,9.20
2012,02,22,13,09,9.20
2012,02,22,13,10,9.20
2012,02,22,13,11,9.20
2012,02,22,13,12,9.20
2012,02,22,13,13,9.20
2012,02,22,13,14,9.20
2012,02,22,13,15,9.20
2012,02,22,13,16,9.20
2012,02,22,13,17,9.20
2012,02,22,13,18,9.20
2012,02,22,13,19,9.20
2012,02,22,13,20,9.20
2012,02,22,13,21,9.20
2012,02,22,13,22,9.20
2012,02,22,13,23,9.20
2012,02,22,13,24,9.20
2012,02,22,13,25,9.20
2012,02,22,13,26,9.20
2012,02,22,13,27,9.20
2012,02,22,13,28,9.20
2012,02,22,13,29,9.20
2012,02,22,13,30,9.10
2012,02,22,13,31,9.10
2012,02,22,13,32,9.10
2012,02,22,13,33,9.00
2012,02,22,13,34,9.10
2012,02,22,13,35,9.00
2012,02,22,13,36,9.00
2012,02,22,13,37,9.00
2012,02,22,13,38,9.00
2012,02,22,13,39,9.00
2012,02,22,13,40,9.00
2012,02,22,13,41,8.90
2012,02,22,13,42,8.90
2012,02,22,13,43,8.80
2012,02,22,13,44,8.80
2012,02,22,13,45,8.70
2012,02,22,13,46,8.70
2012,02,22,13,47,8.70
2012,02,22,13,48,8.60
2012,02,22,13,49,8.60
2012,02,22,13,50,8.60
2012,02,22,13,51,8.60
2012,02,22,13,52,8.60
2012,02,22,13,53,8.60
2012,02,22,13,54,8.60
2012,02,22,13,55,8.60
2012,02,22,13,56,8.60
2012,02,22,13,57,8.70
2012,02,22,13,58,8.70
2012,02,22,13,59,8.70
2012,02,22,14,00,8.80
2012,02,22,14,01,8.80
2012,02,22,14,02,8.80
2012,02,22,14,03,8.80
2012,02,22,14,04,8.80
2012,02,22,14,05,8.80
2012,02,22,14,06,8.90
2012,02,22,14,07,8.90
2012,02,22,14,08,8.90
2012,02,22,14,09,8.90
2012,02,22,14,10,9.00
2012,02,22,14,11,9.00
2012,02,22,14,12,9.00
2012,02,22,14,13,9.00
2012,02,22,14,14,9.10
2012,02,22,14,15,9.20
2012,02,22,14,16,9.20
2012,02,22,14,17,9.20
2012,02,22,14,18,9.30
2012,02,22,14,19,9.30
2012,02,22,14,20,9.30
2012,02,22,14,21,9.30
2012,02,22,14,22,9.30
2012,02,22,14,23,9.30
2012,02,22,14,24,9.30
2012,02,22,14,25,9.30
2012,02,22,14,26,9.30
2012,02,22,14,27,9.30
2012,02,22,14,28,9.30
2012,02,22,14,29,9.30
2012,02,22,14,30,9.20
2012,02,22,14,31,9.20
2012,02,22,14,32,9.30
2012,02,22,14,33,9.30
2012,02,22,14,34,9.30
2012,02,22,14,35,9.30
2012,02,22,14,36,9.30
2012,02,22,14,37,9.30
2012,02,22,14,38,9.30
2012,02,22,14,39,9.20
2012,02,22,14,40,9.20
2012,02,22,14,41,9.20
2012,02,22,14,42,9.10
2012,02,22,14,43,9.10
2012,02,22,14,44,9.10
2012,02,22,14,45,9.10
2012,02,22,14,46,9.10
2012,02,22,14,47,9.10
2012,02,22,14,48,9.10
2012,02,22,14,49,9.10
2012,02,22,14,50,9.10
2012,02,22,14,51,9.10
2012,02,22,14,52,9.00
2012,02,22,14,53,9.00
2012,02,22,14,54,9.00
2012,02,22,14,55,9.00
2012,02,22,14,56,9.10
2012,02,22,14,57,9.10
2012,02,22,14,58,9.10
2012,02,22,14,59,9.20
2012,02,22,15,00,9.20
2012,02,22,15,01,9.20
2012,02,22,15,02,9.20
2012,02,22,15,03,9.20
2012,02,22,15,04,9.20
2012,02,22,15,05,9.20
2012,02,22,15,06,9.20
2012,02,22,15,07,9.20
2012,02,22,15,08,9.20
2012,02,22,15,09,9.20
2012,02,22,15,10,9.20
2012,02,22,15,11,9.20
2012,02,22,15,12,9.20
2012,02,22,15,13,9.10
2012,02,22,15,14,9.10
2012,02,22,15,15,9.10
2012,02,22,15,16,9.10
2012,02,22,15,17,9.10
2012,02,22,15,18,8.80
2012,02,22,15,19,8.70
2012,02,22,15,20,8.70
2012,02,22,15,21,8.70
2012,02,22,15,22,8.70
2012,02,22,15,23,8.70
2012,02,22,15,24,8.60
2012,02,22,15,25,8.60
2012,02,22,15,26,8.60
2012,02,22,15,27,8.50
2012,02,22,15,28,8.50
2012,02,22,15,29,8.50
2012,02,22,15,30,8.50
2012,02,22,15,31,8.50
2012,02,22,15,32,8.50
2012,02,22,15,33,8.50
2012,02,22,15,34,8.50
2012,02,22,15,35,8.50
2012,02,22,15,36,8.40
2012,02,22,15,37,8.40
2012,02,22,15,38,8.40
2012,02,22,15,39,8.30
2012,02,22,15,40,8.30
2012,02,22,15,41,8.30
2012,02,22,15,42,8.20
2012,02,22,15,43,8.20
2012,02,22,15,44,8.20
2012,02,22,15,45,8.20
2012,02,22,15,46,8.20
2012,02,22,15,47,8.20
2012,02,22,15,48,8.10
2012,02,22,15,49,8.10
2012,02,22,15,50,8.00
2012,02,22,15,51,8.00
2012,02,22,15,52,8.00
2012,02,22,15,53,8.00
2012,02,22,15,54,8.00
2012,02,22,15,55,7.90
2012,02,22,15,56,7.90
2012,02,22,15,57,7.90
2012,02,22,15,58,7.90
2012,02,22,15,59,7.90
2012,02,22,16,00,7.90
2012,02,22,16,01,7.90
2012,02,22,16,02,7.90
2012,02,22,16,03,7.90
2012,02,22,16,04,7.90
2012,02,22,16,05,7.90
2012,02,22,16,06,7.90
2012,02,22,16,07,7.90
2012,02,22,16,08,7.90
2012,02,22,16,09,8.00
2012,02,22,16,10,8.00
2012,02,22,16,11,8.00
2012,02,22,16,12,8.00
2012,02,22,16,13,8.00
2012,02,22,16,14,8.00
2012,02,22,16,15,8.00
2012,02,22,16,16,8.00
2012,02,22,16,17,8.00
2012,02,22,16,18,8.00
2012,02,22,16,19,8.00
2012,02,22,16,20,8.00
2012,02,22,16,21,8.00
2012,02,22,16,22,8.00
2012,02,22,16,23,8.00
2012,02,22,16,24,8.00
2012,02,22,16,25,8.00
2012,02,22,16,26,8.00
2012,02,22,16,27,7.90
2012,02,22,16,28,7.90
2012,02,22,16,29,7.90
2012,02,22,16,30,7.90
2012,02,22,16,31,7.90
2012,02,22,16,32,7.90
2012,02,22,16,33,7.90
2012,02,22,16,34,7.90
2012,02,22,16,35,7.90
2012,02,22,16,36,7.90
2012,02,22,16,37,7.90
2012,02,22,16,38,7.90
2012,02,22,16,39,7.90
2012,02,22,16,40,7.90
2012,02,22,16,41,7.90
2012,02,22,16,42,7.90
2012,02,22,16,43,7.90
2012,02,22,16,44,7.90
2012,02,22,16,45,7.90
2012,02,22,16,46,7.90
2012,02,22,16,47,7.90
2012,02,22,16,48,7.90
2012,02,22,16,49,7.90
2012,02,22,16,50,7.90
2012,02,22,16,51,7.90
2012,02,22,16,52,7.90
2012,02,22,16,53,7.90
2012,02,22,16,54,7.90
2012,02,22,16,55,7.90
2012,02,22,16,56,7.90
2012,02,22,16,57,7.90
2012,02,22,16,58,7.90
2012,02,22,16,59,7.90
2012,02,22,17,00,7.80
2012,02,22,17,01,7.80
2012,02,22,17,02,7.80
2012,02,22,17,03,7.80
2012,02,22,17,04,7.80
2012,02,22,17,05,7.80
2012,02,22,17,06,7.80
2012,02,22,17,07,7.80
2012,02,22,17,08,7.80
2012,02,22,17,09,7.70
2012,02,22,17,10,7.70
2012,02,22,17,11,7.70
2012,02,22,17,12,7.70
2012,02,22,17,13,7.70
2012,02,22,17,14,7.60
2012,02,22,17,15,7.60
2012,02,22,17,16,7.60
2012,02,22,17,17,7.60
2012,02,22,17,18,7.50
2012,02,22,17,19,7.50
2012,02,22,17,20,7.40
2012,02,22,17,21,7.40
2012,02,22,17,22,7.40
2012,02,22,17,23,7.30
2012,02,22,17,24,7.30
2012,02,22,17,25,7.30
2012,02,22,17,26,7.30
2012,02,22,17,27,7.30
2012,02,22,17,28,7.30
2012,02,22,17,29,7.30
2012,02,22,17,30,7.30
2012,02,22,17,31,7.20
2012,02,22,17,32,7.20
2012,02,22,17,33,7.20
2012,02,22,17,34,7.20
2012,02,22,17,35,7.20
2012,02,22,17,36,7.10
2012,02,22,17,37,7.10
2012,02,22,17,38,7.10
2012,02,22,17,39,7.10
2012,02,22,17,40,7.10
2012,02,22,17,41,7.00
2012,02,22,17,42,7.00
2012,02,22,17,43,7.00
2012,02,22,17,44,7.00
2012,02,22,17,45,7.00
2012,02,22,17,46,6.90
2012,02,22,17,47,6.90
2012,02,22,17,48,6.90
2012,02,22,17,49,6.90
2012,02,22,17,50,6.80
2012,02,22,17,51,6.80
2012,02,22,17,52,6.80
2012,02,22,17,53,6.80
2012,02,22,17,54,6.90
2012,02,22,17,55,6.90
2012,02,22,17,56,6.90
2012,02,22,17,57,6.90
2012,02,22,17,58,6.90
2012,02,22,17,59,6.90
2012,02,22,18,00,6.90
2012,02,22,18,01,6.90
2012,02,22,18,02,6.90
2012,02,22,18,03,6.90
2012,02,22,18,04,6.90
2012,02,22,18,05,6.90
2012,02,22,18,06,6.90